Wind_Speed
25 25 25 25 25 25 25 25 25 25 25 25 24 23 22 22 21 21 21 20 21 21 21 21 21 21 21 21 22 22 23 23 25 25 26 26 27 27 28 28 28 27 27
25 25 25 25 24 24 24 25 24 24 24 24 23 22 22 21 21 22 21 21 20 20 20 19 19 19 19 20 21 21 22 22 22 22 23 24 24 25 25 25 25 25 25
24 24 24 24 23 23 23 23 23 22 22 22 22 21 21 20 21 21 21 20 19 19 19 19 18 18 19 18 19 20 19 20 20 21 22 22 22 22 22 23 24 25 25
23 23 22 22 22 22 21 21 21 21 21 20 20 19 19 19 19 19 19 19 19 19 18 18 18 17 17 17 17 17 18 18 18 19 19 20 20 20 22 23 24 24 25
22 21 21 21 20 20 20 20 19 19 18 18 17 17 17 16 16 17 17 17 17 16 16 16 16 15 15 15 16 16 16 16 16 17 18 18 19 19 20 21 22 23 24
21 20 19 19 19 19 19 18 17 16 15 15 15 16 16 15 15 14 15 15 15 14 14 14 15 14 13 13 14 14 14 14 14 15 16 17 17 18 19 20 21 22 22
18 18 18 17 17 16 16 16 15 15 15 14 14 15 14 14 13 12 11 11 12 12 12 12 12 11 11 11 11 11 12 12 12 14 14 15 16 16 17 18 19 20 20
17 16 16 15 14 14 15 15 14 14 13 13 14 13 12 11 10 10 10 9 9 8 8 8 8 7 8 8 9 10 10 11 11 12 13 13 13 14 14 15 16 16 17
14 14 14 13 13 13 13 13 13 12 12 12 11 11 9 9 8 8 8 7 6 6 6 6 6 5 5 6 6 7 8 9 9 10 10 10 10 11 12 12 13 13 14
12 11 11 11 11 11 11 11 11 10 9 9 8 7 7 6 6 5 4 4 4 4 3 3 3 2 2 3 4 5 6 6 7 7 7 8 9 10 10 10 11 12 12
9 9 8 8 8 8 7 6 6 5 5 5 5 5 4 4 4 4 3 2 2 1 1 0 1 1 1 2 4 4 5 5 5 6 6 7 8 8 9 9 10 11 11
6 5 5 5 5 4 3 3 2 3 3 3 2 2 2 2 2 2 1 1 1 1 1 2 2 2 2 3 4 4 5 5 6 6 6 6 7 7 8 8 9 10 11
4 4 4 3 2 1 1 1 0 1 0 0 1 1 2 2 2 2 2 2 2 3 3 3 3 3 4 4 5 5 5 5 6 6 6 6 7 7 7 8 9 10 10
2 2 2 2 1 2 2 3 3 2 3 3 3 3 3 4 3 3 4 4 5 5 5 5 5 6 7 6 6 6 6 7 7 7 7 7 7 7 8 9 9 10 11
2 3 3 4 4 4 4 4 5 5 5 6 6 6 6 6 6 6 7 8 8 7 7 7 8 8 8 8 8 8 8 9 9 9 9 9 9 10 10 10 11 11 11
5 5 6 6 6 7 7 7 7 7 7 7 8 8 8 8 8 9 10 10 10 10 10 10 9 9 9 10 10 10 10 10 10 10 11 11 12 12 12 12 12 12 13
7 8 8 8 9 9 9 9 9 10 10 10 11 11 11 11 11 12 12 12 12 12 12 11 11 12 12 12 12 12 12 12 12 12 12 13 13 13 13 13 14 14 14
10 10 10 10 10 10 11 11 11 12 12 12 13 13 13 14 14 15 15 14 14 14 13 13 13 13 13 13 13 13 13 14 14 14 14 14 14 14 14 15 15 15 16
12 12 13 13 12 12 13 13 13 14 14 14 14 15 15 16 16 16 16 16 16 15 15 14 14 14 14 14 14 15 15 15 15 15 14 14 15 15 15 16 16 16 17
13 14 14 14 14 14 14 14 15 15 16 16 17 17 17 18 17 17 16 16 16 16 15 15 15 15 15 15 15 15 15 15 15 15 15 15 16 16 16 17 17 17 18
13 14 15 16 16 15 15 16 16 17 17 18 18 18 18 18 17 17 17 16 16 16 16 16 16 16 16 16 16 15 15 15 15 15 16 16 16 17 17 17 18 18 19
14 14 15 15 15 15 16 17 17 17 18 18 18 18 18 18 18 17 17 16 16 16 16 16 16 15 15 15 15 15 15 15 15 15 16 16 16 17 18 18 19 20 20
14 14 14 15 15 16 17 17 17 17 18 18 18 17 17 17 17 17 16 16 16 16 16 16 15 15 15 14 14 14 14 14 15 15 16 16 17 17 18 19 20 20 21
14 14 14 15 15 16 16 16 17 17 17 17 17 16 16 16 16 16 16 16 16 16 15 15 14 14 14 14 14 14 14 14 15 15 16 16 17 18 19 20 21 22 23
13 13 14 14 14 15 15 15 16 15 16 16 15 15 15 15 15 15 15 14 14 14 14 13 13 13 13 13 13 13 14 14 15 16 16 17 19 20 21 22 23 24 25
13 13 13 12 12 13 13 14 14 14 14 14 13 13 13 13 13 13 13 12 12 12 12 11 11 11 11 12 13 13 14 15 16 16 17 18 19 21 22 24 25 26 28
Wind_Direction
289 288 288 286 284 284 283 281 280 281 280 278 278 278 277 276 274 272 270 270 269 268 269 270 270 269 269 264 262 261 262 261 260 259 260 261 262 264 264 265 266 267 269
289 288 287 285 283 283 281 280 282 282 280 279 278 277 276 274 273 272 271 270 269 268 268 270 269 270 271 267 262 262 263 262 260 259 260 262 266 267 268 269 268 268 270
289 289 287 285 284 283 281 280 281 281 280 279 279 279 277 276 274 274 271 268 267 266 267 268 269 269 267 268 266 264 263 263 262 261 263 265 267 268 268 269 270 272 273
289 288 287 285 285 282 280 280 280 280 279 279 279 280 279 278 276 275 272 269 269 267 267 267 268 268 269 269 266 265 264 265 265 264 264 265 266 266 268 270 271 273 274
288 286 285 284 283 282 280 279 279 278 276 277 278 278 278 278 277 275 273 271 268 266 267 266 265 265 266 265 265 264 265 265 265 265 265 266 267 267 269 271 272 276 277
286 284 283 283 282 281 278 278 277 276 276 277 275 274 276 278 278 275 271 270 267 265 263 262 263 263 265 265 262 261 263 266 267 266 267 269 272 273 274 276 278 279 280
287 284 283 282 281 280 277 277 276 275 275 275 276 275 275 276 277 274 271 270 267 266 265 263 261 265 266 265 264 262 263 263 264 268 271 273 276 279 281 282 283 283 284
287 284 281 280 280 279 278 276 275 274 274 274 275 273 272 272 274 272 266 266 270 268 268 268 269 268 270 266 266 268 267 269 275 277 277 278 278 280 281 282 284 283 284
287 284 281 279 279 280 279 276 273 273 275 274 272 269 267 266 263 261 257 265 271 276 277 273 266 262 263 266 272 276 279 280 281 280 280 283 285 285 285 287 288 290 292
288 285 284 282 281 282 281 278 276 274 274 272 268 261 258 258 259 260 261 265 271 273 283 286 265 259 262 278 290 293 293 293 291 291 292 294 295 295 296 297 299 300 303
295 289 288 288 288 287 285 285 282 280 279 273 266 259 254 247 243 250 258 253 257 272 287 337 23 2 327 318 321 323 313 312 310 310 306 305 305 307 310 311 312 312 313
302 300 300 303 304 298 294 298 287 282 282 268 251 241 227 215 207 201 202 191 169 121 94 76 50 32 15 357 350 351 350 348 343 337 330 325 324 324 325 325 326 326 325
304 314 318 320 329 338 355 347 302 312 316 130 135 137 147 150 154 165 160 154 131 111 96 83 69 48 37 30 25 21 15 10 6 1 358 355 353 350 346 344 343 342 340
321 336 355 9 44 76 79 81 82 89 99 105 108 109 114 121 124 124 129 122 115 107 98 87 73 66 62 55 47 41 38 32 24 22 21 20 19 15 7 360 355 353 351
43 60 69 71 85 88 87 92 96 94 96 100 101 100 100 103 107 109 109 107 103 96 94 90 83 76 70 65 58 52 49 45 43 41 37 34 30 23 16 11 8 5 1
81 93 91 89 93 94 94 97 98 96 98 101 99 95 96 97 102 106 106 105 100 96 93 88 83 77 73 69 64 60 57 55 51 48 44 39 36 32 28 23 19 15 10
91 91 93 94 96 96 94 93 95 97 98 96 94 94 95 97 99 102 103 102 99 95 91 87 83 79 76 71 67 62 60 57 55 52 48 45 42 38 33 28 23 17 12
92 95 96 96 97 97 96 94 95 95 94 94 94 96 97 97 99 100 101 100 97 94 90 87 84 80 76 72 68 65 63 62 59 56 52 46 41 36 30 26 22 19 16
96 99 101 100 98 97 96 96 96 96 96 96 96 97 97 98 99 99 98 96 93 91 88 85 83 80 76 73 70 67 65 61 57 53 48 42 37 34 29 24 20 18 15
97 99 100 99 98 97 97 97 97 97 98 98 99 99 100 100 98 97 95 93 91 89 86 84 82 80 77 74 70 66 62 58 53 49 44 39 35 31 26 22 18 15 11
99 100 100 101 100 99 98 98 99 100 100 100 100 101 101 99 97 95 94 92 90 89 87 85 83 80 76 72 68 64 60 55 51 45 40 36 31 27 24 20 16 13 9
104 105 106 105 104 103 103 102 102 102 102 102 101 102 101 99 97 96 94 92 90 89 87 85 82 78 73 68 64 60 56 52 47 41 36 31 27 23 20 16 11 7 4
105 106 107 107 107 107 107 106 105 105 104 103 103 103 101 99 98 96 94 92 90 89 86 83 79 74 70 65 61 56 51 45 39 34 31 27 23 18 14 10 6 2 359
108 109 111 112 112 111 110 109 109 108 106 106 105 103 101 100 98 97 95 93 91 88 84 80 75 71 66 61 55 49 43 37 32 28 23 19 15 11 7 3 1 358 356
115 117 117 116 115 114 114 114 113 111 110 110 108 106 104 101 99 97 95 92 88 84 80 76 71 64 58 51 44 38 32 27 22 18 14 11 7 3 0 357 355 353 352
121 121 121 120 119 119 119 119 118 117 117 115 112 110 107 104 100 97 93 89 84 78 72 67 61 55 47 39 33 29 24 20 15 11 8 4 1 357 354 352 351 349 348
Height
5784 5782 5781 5779 5778 5776 5775 5774 5773 5772 5771 5770 5769 5769 5768 5768 5767 5767 5766 5766 5766 5766 5766 5766 5766 5766 5766 5766 5767 5767 5768 5768 5769 5769 5769 5770 5770 5770 5770 5770 5769 5769 5768
5777 5775 5773 5772 5770 5769 5768 5767 5766 5765 5764 5763 5763 5762 5761 5761 5761 5760 5760 5760 5760 5760 5760 5760 5760 5760 5760 5760 5761 5761 5762 5762 5762 5762 5763 5763 5763 5763 5762 5762 5762 5761 5761
5770 5768 5766 5765 5763 5762 5761 5760 5759 5758 5758 5757 5756 5755 5755 5754 5754 5754 5754 5754 5754 5754 5754 5754 5754 5754 5755 5755 5755 5755 5756 5756 5756 5756 5756 5756 5756 5756 5756 5755 5755 5754 5753
5763 5761 5760 5758 5757 5756 5755 5754 5753 5752 5752 5751 5750 5750 5749 5748 5748 5748 5748 5748 5748 5748 5748 5749 5749 5749 5749 5749 5749 5750 5750 5750 5750 5750 5750 5750 5750 5749 5749 5748 5748 5747 5746
5757 5755 5754 5752 5751 5750 5749 5749 5748 5747 5746 5746 5745 5744 5743 5743 5742 5742 5742 5742 5742 5743 5743 5743 5743 5744 5744 5744 5744 5744 5745 5745 5745 5745 5745 5744 5744 5743 5743 5742 5741 5740 5738
5750 5749 5748 5747 5746 5744 5744 5743 5742 5742 5741 5741 5740 5739 5739 5738 5738 5737 5737 5737 5737 5738 5738 5738 5738 5739 5739 5739 5739 5739 5740 5740 5740 5740 5739 5739 5738 5737 5737 5736 5734 5733 5732
5744 5743 5742 5741 5740 5739 5739 5738 5738 5737 5736 5736 5735 5735 5734 5734 5733 5733 5733 5733 5733 5733 5734 5734 5734 5734 5734 5734 5735 5735 5735 5735 5735 5735 5734 5733 5733 5732 5731 5730 5728 5727 5726
5739 5738 5737 5736 5736 5735 5734 5733 5733 5732 5732 5732 5731 5731 5731 5730 5730 5730 5730 5730 5730 5730 5730 5730 5731 5731 5731 5731 5731 5731 5731 5731 5730 5730 5729 5729 5728 5727 5726 5725 5724 5722 5721
5734 5733 5733 5732 5731 5731 5730 5729 5729 5728 5728 5728 5727 5727 5727 5727 5727 5727 5727 5727 5727 5727 5727 5728 5728 5728 5728 5728 5728 5727 5727 5727 5726 5726 5725 5725 5724 5723 5722 5721 5720 5718 5717
5730 5729 5729 5728 5728 5727 5726 5726 5725 5725 5725 5724 5724 5724 5724 5725 5725 5725 5725 5725 5725 5726 5726 5726 5726 5726 5726 5726 5725 5725 5724 5724 5723 5723 5722 5722 5721 5720 5719 5718 5716 5715 5713
5727 5726 5726 5725 5725 5724 5723 5723 5722 5722 5722 5722 5722 5722 5723 5723 5723 5723 5724 5724 5724 5725 5725 5725 5725 5725 5724 5724 5724 5723 5722 5721 5721 5720 5720 5719 5718 5717 5716 5715 5713 5712 5710
5725 5724 5724 5723 5723 5722 5721 5721 5721 5721 5721 5721 5721 5721 5721 5722 5722 5722 5723 5723 5724 5724 5724 5724 5724 5724 5724 5723 5722 5722 5721 5720 5719 5719 5718 5717 5716 5715 5714 5713 5711 5710 5708
5724 5723 5723 5722 5722 5721 5721 5720 5720 5720 5720 5720 5720 5720 5721 5721 5721 5722 5722 5723 5723 5724 5724 5724 5724 5724 5723 5723 5722 5721 5720 5720 5719 5718 5717 5716 5715 5714 5713 5711 5710 5708 5706
5723 5723 5722 5722 5721 5721 5721 5720 5720 5720 5720 5720 5720 5720 5721 5721 5721 5722 5723 5723 5724 5724 5724 5725 5724 5724 5724 5723 5723 5722 5721 5720 5719 5718 5717 5716 5715 5714 5712 5711 5709 5707 5705
5723 5723 5722 5722 5722 5722 5722 5721 5721 5721 5721 5721 5721 5721 5722 5722 5722 5723 5723 5724 5724 5725 5725 5725 5725 5725 5725 5724 5724 5723 5722 5721 5720 5719 5718 5717 5716 5714 5712 5710 5708 5706 5704
5724 5724 5724 5724 5723 5723 5723 5723 5723 5723 5723 5723 5723 5723 5723 5723 5723 5724 5725 5725 5726 5726 5727 5727 5727 5727 5726 5726 5726 5725 5724 5723 5722 5721 5720 5718 5716 5715 5713 5711 5709 5706 5703
5726 5725 5726 5726 5726 5726 5726 5725 5725 5725 5725 5725 5725 5725 5725 5725 5726 5726 5727 5728 5728 5729 5729 5729 5729 5729 5729 5728 5728 5727 5726 5725 5724 5722 5721 5720 5718 5716 5714 5712 5709 5706 5704
5728 5728 5728 5728 5728 5728 5728 5728 5728 5728 5728 5728 5728 5728 5729 5729 5729 5730 5730 5731 5731 5732 5732 5732 5732 5732 5731 5731 5730 5729 5728 5727 5726 5725 5723 5722 5720 5718 5715 5713 5710 5707 5704
5731 5731 5731 5731 5731 5732 5732 5732 5732 5732 5732 5732 5732 5732 5733 5733 5733 5734 5734 5735 5735 5735 5735 5735 5735 5735 5734 5734 5733 5732 5731 5730 5728 5727 5725 5723 5721 5719 5716 5714 5711 5708 5705
5735 5735 5735 5735 5735 5735 5736 5736 5736 5736 5736 5736 5736 5737 5737 5738 5738 5738 5738 5739 5739 5739 5739 5739 5739 5738 5738 5737 5736 5735 5734 5733 5731 5729 5727 5725 5723 5720 5718 5715 5712 5708 5705
5739 5739 5739 5739 5739 5740 5740 5740 5741 5741 5741 5741 5741 5742 5742 5742 5742 5743 5743 5743 5743 5743 5743 5742 5742 5742 5741 5740 5739 5738 5737 5735 5733 5732 5730 5727 5725 5722 5719 5716 5712 5709 5705
5743 5743 5743 5744 5744 5744 5745 5745 5745 5745 5746 5746 5746 5746 5746 5746 5747 5747 5747 5747 5747 5747 5746 5746 5746 5745 5744 5743 5742 5740 5739 5737 5736 5734 5731 5729 5726 5723 5720 5716 5713 5709 5705
5747 5747 5748 5748 5748 5749 5749 5749 5750 5750 5750 5750 5751 5751 5751 5751 5751 5751 5751 5751 5751 5751 5750 5750 5749 5748 5747 5746 5744 5743 5741 5740 5738 5735 5733 5730 5727 5724 5720 5717 5713 5709 5704
5751 5751 5752 5752 5753 5753 5753 5754 5754 5754 5755 5755 5755 5756 5756 5756 5756 5756 5755 5755 5755 5754 5753 5753 5752 5751 5750 5748 5747 5745 5743 5741 5739 5736 5733 5730 5727 5724 5720 5716 5712 5708 5703
5754 5755 5756 5756 5757 5757 5757 5758 5758 5758 5759 5759 5759 5760 5760 5759 5759 5759 5759 5759 5758 5757 5756 5756 5755 5754 5752 5751 5749 5747 5745 5742 5740 5737 5734 5731 5727 5724 5720 5715 5711 5706 5702
5758 5758 5759 5760 5760 5760 5761 5761 5762 5762 5762 5763 5763 5763 5763 5763 5762 5762 5762 5761 5761 5760 5759 5758 5757 5756 5754 5752 5750 5748 5745 5743 5740 5737 5734 5730 5726 5722 5718 5714 5709 5704 5699